Meteo orario Allahabad

Oggi, 30 Ottobre, Venerdi

Tempo Temperatura Precipitazioni Vento Pressione Umidità
00:00 +24°C° 0 mm 2 m/s 750 mm Hg 31%
01:00 +23°C° 0 mm 2 m/s 750 mm Hg 31%
02:00 +23°C° 0 mm 2 m/s 750 mm Hg 31%
03:00 +21°C° 0 mm 2 m/s 750 mm Hg 34%
04:00 +21°C° 0 mm 2 m/s 750 mm Hg 37%
05:00 +21°C° 0 mm 2 m/s 750 mm Hg 40%
06:00 +23°C° 0 mm 1 m/s 751 mm Hg 40%
07:00 +25°C° 0 mm 1 m/s 752 mm Hg 39%
08:00 +27°C° 0 mm 1 m/s 752 mm Hg 39%
09:00 +28°C° 0 mm 2 m/s 752 mm Hg 35%
10:00 +30°C° 0 mm 2 m/s 751 mm Hg 31%
11:00 +32°C° 0 mm 2 m/s 751 mm Hg 27%
12:00 +34°C° 0 mm 3 m/s 750 mm Hg 24%
13:00 +34°C° 0 mm 3 m/s 750 mm Hg 22%
14:00 +34°C° 0 mm 4 m/s 749 mm Hg 19%
15:00 +33°C° 0 mm 3 m/s 749 mm Hg 22%
16:00 +30°C° 0 mm 2 m/s 748 mm Hg 25%
17:00 +28°C° 0 mm 2 m/s 748 mm Hg 28%
18:00 +27°C° 0 mm 1 m/s 749 mm Hg 29%
19:00 +26°C° 0 mm 1 m/s 750 mm Hg 29%
20:00 +26°C° 0 mm 1 m/s 750 mm Hg 30%
21:00 +25°C° 0 mm 1 m/s 750 mm Hg 31%
22:00 +25°C° 0 mm 1 m/s 750 mm Hg 32%
23:00 +24°C° 0 mm 1 m/s 750 mm Hg 33%

Domani, 31 Ottobre, Sabato

Tempo Temperatura Precipitazioni Vento Pressione Umidità
00:00 +24°C° 0 mm 2 m/s 750 mm Hg 33%
01:00 +23°C° 0 mm 2 m/s 750 mm Hg 33%
02:00 +23°C° 0 mm 2 m/s 750 mm Hg 34%
03:00 +21°C° 0 mm 2 m/s 750 mm Hg 33%
04:00 +21°C° 0 mm 2 m/s 750 mm Hg 33%
05:00 +21°C° 0 mm 2 m/s 750 mm Hg 32%
06:00 +23°C° 0 mm 2 m/s 751 mm Hg 32%
07:00 +24°C° 0 mm 2 m/s 751 mm Hg 32%
08:00 +26°C° 0 mm 2 m/s 752 mm Hg 32%
09:00 +27°C° 0 mm 2 m/s 752 mm Hg 29%
10:00 +29°C° 0 mm 2 m/s 751 mm Hg 25%
11:00 +31°C° 0 mm 2 m/s 751 mm Hg 21%
12:00 +32°C° 0 mm 2 m/s 750 mm Hg 21%
13:00 +32°C° 0 mm 2 m/s 750 mm Hg 20%
14:00 +33°C° 0 mm 3 m/s 749 mm Hg 20%
15:00 +31°C° 0 mm 2 m/s 749 mm Hg 22%
16:00 +29°C° 0 mm 1 m/s 749 mm Hg 24%
17:00 +28°C° 0 mm 1 m/s 749 mm Hg 26%
18:00 +27°C° 0 mm 1 m/s 750 mm Hg 26%
19:00 +27°C° 0 mm 1 m/s 750 mm Hg 26%
20:00 +26°C° 0 mm 1 m/s 750 mm Hg 27%
21:00 +26°C° 0 mm 1 m/s 750 mm Hg 27%
22:00 +25°C° 0 mm 1 m/s 750 mm Hg 28%
23:00 +25°C° 0 mm 1 m/s 750 mm Hg 28%

Dopodomani, 1 Novenbre, Domenica

Tempo Temperatura Precipitazioni Vento Pressione Umidità
00:00 +24°C° 0 mm 1 m/s 750 mm Hg 29%
01:00 +24°C° 0 mm 1 m/s 750 mm Hg 30%
02:00 +23°C° 0 mm 1 m/s 750 mm Hg 31%
03:00 +23°C° 0 mm 1 m/s 750 mm Hg 31%
04:00 +22°C° 0 mm 1 m/s 750 mm Hg 31%
05:00 +22°C° 0 mm 1 m/s 750 mm Hg 31%
06:00 +23°C° 0 mm 2 m/s 751 mm Hg 30%
07:00 +25°C° 0 mm 2 m/s 751 mm Hg 29%
08:00 +26°C° 0 mm 2 m/s 752 mm Hg 28%
09:00 +28°C° 0 mm 2 m/s 752 mm Hg 26%
10:00 +30°C° 0 mm 2 m/s 752 mm Hg 23%
11:00 +33°C° 0 mm 3 m/s 751 mm Hg 21%
12:00 +32°C° 0 mm 2 m/s 751 mm Hg 20%
13:00 +34°C° 0 mm 2 m/s 750 mm Hg 19%
14:00 +34°C° 0 mm 2 m/s 749 mm Hg 17%
15:00 +32°C° 0 mm 2 m/s 749 mm Hg 19%
16:00 +30°C° 0 mm 2 m/s 749 mm Hg 21%
17:00 +29°C° 0 mm 1 m/s 749 mm Hg 24%
18:00 +28°C° 0 mm 1 m/s 750 mm Hg 24%
19:00 +27°C° 0 mm 1 m/s 750 mm Hg 25%
20:00 +26°C° 0 mm 1 m/s 751 mm Hg 25%
21:00 +26°C° 0 mm 1 m/s 751 mm Hg 26%
22:00 +26°C° 0 mm 1 m/s 750 mm Hg 26%
23:00 +25°C° 0 mm 1 m/s 750 mm Hg 27%

2 Novenbre, Lunedi

Tempo Temperatura Precipitazioni Vento Pressione Umidità
00:00 +25°C° 0 mm 2 m/s 750 mm Hg 28%
01:00 +24°C° 0 mm 2 m/s 750 mm Hg 30%
02:00 +24°C° 0 mm 2 m/s 750 mm Hg 32%
03:00 +23°C° 0 mm 2 m/s 750 mm Hg 32%
04:00 +23°C° 0 mm 2 m/s 750 mm Hg 33%
05:00 +21°C° 0 mm 2 m/s 751 mm Hg 34%
06:00 +24°C° 0 mm 2 m/s 751 mm Hg 32%
07:00 +25°C° 0 mm 2 m/s 752 mm Hg 29%
08:00 +26°C° 0 mm 2 m/s 752 mm Hg 27%
09:00 +28°C° 0 mm 2 m/s 752 mm Hg 24%
10:00 +30°C° 0 mm 2 m/s 752 mm Hg 21%
11:00 +33°C° 0 mm 3 m/s 752 mm Hg 19%
12:00 +32°C° 0 mm 2 m/s 751 mm Hg 19%
13:00 +34°C° 0 mm 2 m/s 751 mm Hg 19%
14:00 +34°C° 0 mm 2 m/s 750 mm Hg 19%
15:00 +32°C° 0 mm 2 m/s 750 mm Hg 22%
16:00 +30°C° 0 mm 2 m/s 750 mm Hg 24%
17:00 +29°C° 0 mm 2 m/s 750 mm Hg 27%
18:00 +28°C° 0 mm 1 m/s 750 mm Hg 27%
19:00 +27°C° 0 mm 1 m/s 751 mm Hg 28%
20:00 +27°C° 0 mm 1 m/s 751 mm Hg 28%
21:00 +26°C° 0 mm 1 m/s 751 mm Hg 28%
22:00 +25°C° 0 mm 1 m/s 751 mm Hg 28%
23:00 +25°C° 0 mm 2 m/s 751 mm Hg 27%

3 Novenbre, Martedi

Tempo Temperatura Precipitazioni Vento Pressione Umidità
00:00 +24°C° 0 mm 2 m/s 751 mm Hg 26%
01:00 +23°C° 0 mm 2 m/s 751 mm Hg 25%
02:00 +23°C° 0 mm 2 m/s 751 mm Hg 24%
03:00 +21°C° 0 mm 2 m/s 751 mm Hg 23%
04:00 +21°C° 0 mm 2 m/s 751 mm Hg 23%
05:00 +20°C° 0 mm 2 m/s 751 mm Hg 22%
06:00 +21°C° 0 mm 2 m/s 752 mm Hg 22%
07:00 +24°C° 0 mm 2 m/s 752 mm Hg 23%
08:00 +25°C° 0 mm 2 m/s 753 mm Hg 23%
09:00 +27°C° 0 mm 2 m/s 753 mm Hg 21%
10:00 +29°C° 0 mm 2 m/s 752 mm Hg 19%
11:00 +31°C° 0 mm 2 m/s 752 mm Hg 17%
12:00 +32°C° 0 mm 2 m/s 752 mm Hg 16%
13:00 +33°C° 0 mm 3 m/s 751 mm Hg 15%
14:00 +34°C° 0 mm 3 m/s 750 mm Hg 14%
15:00 +31°C° 0 mm 2 m/s 750 mm Hg 16%
16:00 +29°C° 0 mm 2 m/s 750 mm Hg 19%
17:00 +27°C° 0 mm 1 m/s 750 mm Hg 21%
18:00 +26°C° 0 mm 1 m/s 750 mm Hg 21%
19:00 +26°C° 0 mm 1 m/s 750 mm Hg 21%
20:00 +25°C° 0 mm 1 m/s 751 mm Hg 21%
21:00 +24°C° 0 mm 1 m/s 751 mm Hg 22%
22:00 +24°C° 0 mm 1 m/s 751 mm Hg 23%
23:00 +23°C° 0 mm 1 m/s 751 mm Hg 24%

4 Novenbre, Mercoledi

Tempo Temperatura Precipitazioni Vento Pressione Umidità
00:00 +23°C° 0 mm 1 m/s 751 mm Hg 24%
01:00 +22°C° 0 mm 1 m/s 750 mm Hg 25%
02:00 +22°C° 0 mm 1 m/s 750 mm Hg 25%
03:00 +20°C° 0 mm 2 m/s 750 mm Hg 25%
04:00 +20°C° 0 mm 2 m/s 750 mm Hg 26%
05:00 +19°C° 0 mm 2 m/s 750 mm Hg 26%
06:00 +21°C° 0 mm 2 m/s 751 mm Hg 26%
07:00 +23°C° 0 mm 2 m/s 751 mm Hg 26%
08:00 +25°C° 0 mm 2 m/s 752 mm Hg 25%
09:00 +27°C° 0 mm 2 m/s 752 mm Hg 23%
10:00 +29°C° 0 mm 2 m/s 752 mm Hg 20%
11:00 +31°C° 0 mm 2 m/s 752 mm Hg 18%
12:00 +33°C° 0 mm 3 m/s 751 mm Hg 17%
13:00 +33°C° 0 mm 3 m/s 750 mm Hg 16%
14:00 +34°C° 0 mm 3 m/s 749 mm Hg 15%
15:00 +31°C° 0 mm 2 m/s 749 mm Hg 17%
16:00 +29°C° 0 mm 2 m/s 749 mm Hg 19%
17:00 +27°C° 0 mm 1 m/s 749 mm Hg 22%
18:00 +26°C° 0 mm 1 m/s 749 mm Hg 23%
19:00 +26°C° 0 mm 1 m/s 750 mm Hg 23%
20:00 +23°C° 0 mm 0 m/s 750 mm Hg 24%
21:00 +22°C° 0 mm 0 m/s 750 mm Hg 25%
22:00 +24°C° 0 mm 1 m/s 750 mm Hg 26%
23:00 +23°C° 0 mm 1 m/s 750 mm Hg 26%
Mostrare altro

Abbiamo bisogno del tuo consenso

Meteoprog e i nostri fornitori di servizi possono memorizzare e accedere a dati personali come cookie, identificatori di dispositivi o altre tecnologie simili sul tuo dispositivo e possono elaborare tali dati per personalizzare i contenuti e gli annunci, nonché fornire funzionalità dei social media e analizzarne il traffico.

  • Archiviare e/o accedere alle informazioni sul tuo dispositivo

    Cookie, identificatori di dispositivi o altre informazioni possono essere memorizzati o resi accessibili sul tuo dispositivo per le finalità sopra indicate.

  • Annunci e contenuti personalizzati, misurazione di annunci e contenuti, approfondimenti sul pubblico e sviluppo di prodotti

    Gli annunci e i contenuti possono essere personalizzati in base a un profilo. È possibile aggiungere più dati per personalizzare meglio annunci e contenuti. È possibile misurare il rendimento degli annunci e dei contenuti. È possibile ricavare informazioni sul pubblico che ha visto gli annunci e i contenuti. Tali dati possono essere utilizzati per sviluppare o migliorare l'esperienza, i sistemi e il software dell'utente.

Cliccando su “Accetto”, acconsenti all'uso di cookie, identificatori di dispositivo, web beacon o altre tecnologie simili. Puoi modificare le impostazioni nel browser del tuo dispositivo.

Per determinati scopi, è possibile fare affidamento su interessi legali, piuttosto che sul consenso. Puoi approfondire questo argomento consultando la nostra Informativa sulla privacy e sui cookie.